Theta_e
319 322 323 322 322 321 318 315 314 311 309 309 308 307 304 302 300 300 303 300 296 296 297 296 294 293 293 293 296 292 291 291 293 294 292 291 290 291 290 289 288 287 287
316 316 318 318 319 319 318 315 313 311 308 308 307 306 304 302 304 303 300 297 298 298 297 293 292 293 294 293 292 293 290 290 290 290 290 290 289 289 288 287 287 287 287
310 314 315 316 317 317 317 316 312 311 308 307 306 306 305 303 300 299 299 301 297 297 293 292 292 294 297 291 292 291 294 290 289 289 288 288 288 287 287 286 286 286 286
312 312 310 314 314 316 316 316 314 311 309 307 306 305 304 302 300 299 300 300 297 293 291 291 292 296 294 290 291 293 290 288 288 288 288 288 287 287 286 286 286 285 285
312 312 311 310 311 313 314 314 312 311 308 306 304 303 302 301 300 298 298 293 291 290 291 292 292 297 292 292 295 292 289 288 287 287 287 287 286 286 285 284 283 283 283
311 312 312 311 310 311 313 312 311 310 307 305 304 303 302 299 298 297 293 291 290 292 297 294 293 291 294 294 289 287 286 286 286 286 285 284 283 282 282 281 281 281 280
310 311 311 311 310 311 311 311 310 309 307 304 303 302 300 298 297 294 292 290 292 296 292 291 290 292 292 288 285 284 283 282 282 282 281 281 281 281 280 280 279 279 279
309 308 310 311 310 310 310 309 309 307 305 304 302 300 299 297 295 293 293 294 294 290 290 290 290 288 285 287 288 286 283 282 281 281 281 281 280 279 279 278 279 278 279
307 306 309 311 310 309 309 309 308 306 304 302 301 299 297 296 294 294 295 292 289 290 289 289 288 288 288 287 287 282 281 280 280 280 280 280 279 277 277 278 278 277 277
307 306 308 310 310 309 309 308 307 306 304 302 300 297 296 294 293 293 290 290 289 288 287 286 285 286 286 282 281 280 279 280 279 279 279 278 277 277 278 277 277 277 277
306 306 306 308 309 309 308 307 306 305 303 299 296 295 293 293 291 289 290 289 288 287 286 286 285 283 281 280 280 279 279 278 278 278 277 276 277 278 277 276 276 276 276
303 304 304 305 306 307 306 306 304 303 298 295 294 292 291 291 290 289 288 287 287 286 286 285 284 282 281 281 280 279 278 278 277 277 277 277 277 276 275 275 275 275 274
302 301 300 301 303 303 303 301 296 295 295 293 292 291 289 289 288 288 287 286 286 285 284 283 282 282 281 281 280 278 277 277 277 277 277 276 276 275 275 275 274 273 273
300 297 297 298 299 297 296 297 296 295 294 292 291 290 289 288 287 286 285 285 285 283 282 282 282 281 281 280 278 278 278 277 277 277 276 276 275 275 275 274 274 272 272
297 296 295 296 295 294 294 295 294 293 294 293 292 291 290 288 287 287 287 286 285 282 282 281 281 280 280 278 278 278 278 277 277 277 276 276 276 275 275 274 272 271 270
295 294 294 293 293 292 292 291 292 292 292 291 291 291 290 289 288 286 285 284 283 282 281 280 279 278 278 279 278 278 278 277 277 277 276 276 275 275 274 272 271 270 269
294 293 292 291 291 291 291 291 289 289 289 290 290 289 289 288 286 284 283 282 281 280 279 279 279 278 279 279 279 278 277 277 277 276 276 275 275 274 272 271 270 269 269
292 291 291 290 290 290 290 289 289 288 287 287 287 287 287 285 284 283 282 281 280 279 279 279 278 277 278 279 278 278 277 277 276 276 275 274 273 272 271 270 269 268 268
291 290 290 290 289 290 289 289 289 288 288 287 286 285 284 284 283 282 282 281 280 279 278 278 278 277 278 278 278 278 277 276 276 275 274 273 272 270 270 269 268 267 267
290 290 290 290 289 289 289 289 288 288 287 287 286 285 284 283 282 281 280 279 278 278 278 279 279 278 278 278 277 277 276 275 275 274 273 272 271 270 268 267 267 266 266
290 289 289 289 289 289 289 288 288 288 287 285 284 283 282 282 281 279 278 278 278 278 278 277 277 278 277 277 277 276 275 274 273 272 272 271 269 269 267 267 266 265 265
290 289 289 289 289 288 288 287 286 285 284 283 282 282 281 280 279 279 280 279 279 279 278 278 278 278 277 277 276 275 274 273 272 271 270 269 268 267 266 266 265 265 265
290 290 289 289 288 288 286 285 285 284 283 282 282 282 281 280 279 280 280 280 279 279 279 278 278 277 276 275 274 273 272 271 270 269 269 268 267 266 266 265 265 265 264
289 289 289 288 287 286 285 284 284 283 283 282 282 282 281 280 279 279 279 279 279 278 278 277 277 276 275 274 273 272 271 270 269 268 267 267 266 266 266 265 265 264 264
289 289 288 287 286 285 284 283 283 283 282 282 281 281 280 280 279 278 278 278 278 277 277 276 275 274 273 273 272 271 270 269 268 268 267 266 266 265 265 265 264 263 263
287 287 286 285 285 284 284 283 282 282 282 281 281 281 280 280 279 278 278 277 277 277 276 275 274 273 272 271 270 269 269 268 267 267 266 266 265 265 265 264 263 262 262
Wind_Speed
6 13 21 23 27 33 37 38 38 38 39 38 36 37 39 38 35 33 36 33 30 25 23 25 24 19 15 14 12 15 15 16 20 20 16 11 11 17 18 17 16 16 15
12 9 13 17 20 28 33 34 38 37 39 38 35 34 36 39 38 36 33 34 29 29 28 29 24 20 13 15 16 16 17 16 18 19 19 18 17 15 16 16 18 19 19
14 16 18 20 22 26 27 33 38 38 41 39 38 36 35 35 36 35 36 35 31 30 29 28 24 16 17 20 20 17 17 20 18 16 16 15 13 15 16 18 21 23 22
10 10 16 28 24 27 31 33 37 38 42 43 40 37 36 35 37 36 35 33 32 33 30 25 22 22 22 22 20 17 21 21 18 18 18 19 18 20 21 23 24 24 24
15 15 16 20 23 27 31 33 35 36 40 42 40 39 37 35 36 34 32 31 34 32 27 25 27 26 25 22 21 22 19 19 18 19 19 20 21 21 22 24 24 26 24
19 21 22 19 22 27 32 34 34 36 40 43 42 40 39 36 34 32 33 34 32 28 27 29 26 22 20 21 20 20 19 18 18 19 19 20 19 20 22 22 24 26 29
10 18 27 25 22 29 30 32 34 37 39 42 42 41 38 37 34 33 33 32 30 32 28 25 22 23 20 17 19 17 18 20 21 19 18 17 17 17 19 21 22 25 26
17 17 20 30 27 31 32 32 35 38 40 42 42 40 40 37 33 32 34 34 33 26 22 23 23 17 17 19 17 17 18 16 15 16 14 14 15 14 17 21 22 22 24
22 25 22 30 33 33 34 35 37 40 41 42 43 43 40 34 31 31 34 33 24 23 23 20 18 17 15 16 14 16 16 14 14 15 15 13 13 16 17 19 19 22 28
24 23 21 25 31 34 33 32 31 36 39 43 43 39 35 30 30 32 29 24 26 23 19 17 16 14 11 13 12 12 14 15 15 14 14 14 16 15 14 15 16 20 23
24 21 19 17 28 31 32 34 33 37 41 41 38 35 29 29 31 25 25 25 22 21 19 17 15 12 10 10 11 12 12 13 14 15 14 14 13 15 15 16 19 21 25
27 21 17 18 23 29 32 37 41 41 42 38 35 32 30 28 25 26 23 20 19 19 17 14 11 10 9 9 10 11 13 13 13 12 12 12 14 15 14 17 20 25 28
22 20 18 16 22 29 35 43 41 38 37 35 33 32 29 26 26 23 22 21 19 16 12 9 9 10 10 10 10 12 9 8 7 9 12 13 14 16 19 22 26 28 24
16 11 10 12 16 23 28 30 32 31 31 33 32 30 28 28 27 26 25 21 18 17 19 19 16 13 13 12 11 7 6 6 9 12 12 16 18 20 24 28 32 30 33
8 6 7 10 14 19 20 22 25 25 22 25 27 29 30 30 30 27 23 21 18 18 18 16 16 15 15 11 9 8 7 8 11 11 15 21 24 26 31 34 33 32 34
7 9 11 14 16 18 20 21 17 17 20 18 21 22 24 21 21 20 18 17 18 19 19 19 16 12 11 10 10 11 10 11 14 20 23 26 28 32 35 34 32 29 30
10 13 15 17 19 20 20 21 23 17 15 15 16 16 16 17 17 16 16 15 16 16 16 14 13 10 10 11 13 15 16 18 21 23 26 29 31 35 33 29 30 31 34
13 15 18 19 20 20 21 22 23 24 24 21 18 17 15 14 14 15 13 12 14 14 13 13 15 14 13 14 15 16 19 21 23 26 29 32 33 30 29 31 33 34 33
15 19 19 19 19 19 21 22 23 24 24 23 21 18 16 14 14 13 14 13 13 14 11 8 9 13 14 17 18 19 22 24 27 30 32 32 29 30 31 34 34 32 33
17 19 19 20 20 21 22 23 23 22 21 18 18 18 19 19 19 20 18 14 13 13 12 9 9 13 14 17 20 23 25 28 30 30 30 30 31 33 32 32 32 34 35
21 21 20 21 20 21 22 22 21 19 18 16 16 15 14 15 15 15 12 9 7 7 8 11 14 16 20 23 25 27 29 30 30 31 31 34 32 32 31 31 33 34 34
23 23 23 23 22 22 20 18 17 15 13 12 12 12 11 9 11 9 6 6 6 10 14 16 18 19 21 23 26 29 29 29 31 32 33 32 32 30 31 33 32 32 32
25 24 24 22 20 19 19 18 16 14 13 12 11 11 12 10 9 9 8 9 11 11 14 18 20 21 24 26 28 27 28 28 30 30 30 30 29 29 29 30 30 30 29
25 25 23 21 21 19 18 18 17 16 16 13 13 11 10 9 10 16 18 18 18 18 18 19 21 23 26 27 27 26 26 25 25 25 24 25 26 26 27 28 28 27 27
24 22 21 20 20 20 19 19 18 19 17 15 13 12 11 10 8 12 15 16 17 18 19 20 22 24 25 23 25 25 24 25 25 25 25 25 26 26 27 28 27 25 24
22 20 19 20 21 21 20 18 18 18 18 15 14 13 12 11 11 13 14 15 17 19 20 22 23 24 25 26 26 26 27 27 26 25 25 26 26 27 26 25 23 20 21
Wind_Direction
266 248 248 249 244 240 239 240 241 238 238 235 233 230 227 223 224 229 236 234 220 220 229 231 221 217 219 220 244 235 227 219 208 194 205 221 245 263 278 291 295 303 307
266 278 257 260 254 245 240 241 234 238 235 235 234 232 231 227 232 227 227 216 231 225 227 218 215 213 221 235 227 239 221 236 229 226 233 241 252 265 277 281 286 290 295
320 254 253 246 247 252 245 243 236 236 234 230 231 236 234 228 222 217 222 231 221 228 218 214 213 216 234 228 229 223 243 237 236 238 244 251 258 258 261 267 276 282 291
260 281 259 250 245 248 247 240 238 236 234 229 232 232 231 229 223 219 226 225 222 212 208 209 211 229 228 223 224 233 235 234 234 239 247 254 258 259 267 274 278 284 294
285 271 278 271 247 246 241 237 235 235 232 231 225 224 227 226 225 223 225 213 204 202 205 216 221 236 225 227 246 235 235 242 247 251 255 258 260 265 272 279 287 296 301
269 279 277 264 247 240 235 233 235 233 230 226 225 228 224 223 227 225 213 204 203 210 227 224 232 218 228 233 231 235 238 241 249 254 255 258 263 269 276 285 295 304 312
291 278 264 257 245 235 229 231 233 233 230 224 222 222 221 224 223 215 208 207 214 225 222 219 223 228 226 221 233 243 247 247 250 254 258 264 268 274 283 294 299 301 305
284 295 284 250 238 232 231 233 231 229 227 225 222 221 222 223 219 209 209 219 224 220 219 223 227 218 213 224 232 243 248 250 251 254 259 263 276 289 297 301 304 307 306
294 297 304 250 232 228 227 228 226 224 221 222 223 221 220 221 215 212 219 217 212 216 218 220 224 223 224 235 238 241 246 252 260 267 279 291 297 304 307 304 311 313 315
291 296 305 249 239 233 234 231 233 231 228 224 221 221 223 218 210 217 210 208 208 207 215 215 225 232 243 253 252 250 250 256 261 264 268 278 289 290 290 298 306 305 310
297 293 288 269 246 241 232 231 227 224 221 214 212 212 212 212 204 201 203 205 209 211 211 213 226 237 236 251 263 262 264 267 271 273 272 274 273 281 294 292 288 292 293
301 289 274 266 255 243 235 228 215 212 205 201 202 197 200 200 199 201 202 205 206 208 203 202 214 220 237 256 273 284 282 279 274 268 272 281 304 302 293 293 296 294 294
291 279 281 264 249 239 227 207 197 194 193 191 192 189 186 189 192 195 198 201 205 204 208 222 232 238 251 263 283 295 287 291 294 292 293 315 309 303 300 300 301 305 293
288 279 273 249 233 214 203 197 194 191 192 188 188 185 183 184 188 189 198 199 202 195 204 218 230 243 252 269 288 285 289 293 312 315 314 297 294 295 297 307 310 308 307
260 234 214 205 200 184 185 188 191 194 204 197 193 192 189 190 196 200 204 206 210 208 214 219 226 236 254 259 253 270 276 277 280 283 271 285 292 300 306 311 308 308 307
209 191 181 179 177 175 173 170 183 194 194 201 201 200 197 202 197 201 210 214 215 218 224 230 234 235 233 236 249 261 265 275 268 271 282 293 302 304 307 306 307 309 308
192 177 174 172 172 170 170 170 164 170 182 187 189 190 196 190 192 200 201 202 205 205 212 218 220 226 233 247 244 263 264 263 274 285 294 299 301 302 301 304 308 309 308
181 175 174 174 174 171 171 170 169 166 163 163 173 179 183 188 192 199 201 204 205 213 226 237 247 240 235 250 256 259 271 283 289 291 295 296 298 298 302 304 305 305 306
178 176 180 178 177 174 172 173 174 171 170 169 170 174 183 193 198 219 226 227 233 232 230 215 215 222 235 248 259 272 284 290 290 291 294 297 298 301 299 298 299 300 303
183 182 180 178 176 176 177 176 175 176 179 185 187 191 193 201 203 208 222 232 232 217 209 217 228 231 247 265 277 283 286 288 290 293 295 295 295 294 295 297 299 301 303
183 181 181 179 176 175 177 181 184 188 193 196 200 205 216 224 217 220 226 195 194 201 213 239 255 261 270 278 281 284 287 288 288 290 291 292 292 294 296 299 301 302 302
181 179 181 178 176 177 180 184 182 179 176 182 177 177 180 179 186 191 204 218 226 243 239 242 252 267 273 279 285 289 290 288 287 288 290 293 295 296 297 299 300 302 303
181 180 181 180 181 183 180 181 186 185 186 190 182 186 190 192 198 213 229 232 224 234 247 258 271 276 282 288 291 290 291 291 292 293 293 295 295 294 295 298 302 303 304
179 181 183 185 186 183 180 180 185 191 194 199 198 202 203 209 224 232 234 238 247 256 261 268 276 282 289 292 293 295 298 298 302 302 295 292 296 298 300 302 303 304 305
181 184 185 184 183 183 182 184 189 192 200 201 201 204 205 204 219 208 221 238 251 261 269 276 284 289 292 293 296 299 302 305 303 300 301 303 304 304 304 303 305 307 308
188 189 188 185 186 188 188 191 193 196 196 203 211 217 219 226 230 234 243 253 259 266 276 282 289 294 299 301 302 304 306 305 305 306 305 304 304 303 304 304 305 305 308